Year,Month,Day,Hour,Minute,Value (Times are PST for temperature in C)
2014,07,14,00,00,25.00
2014,07,14,00,01,25.00
2014,07,14,00,02,25.00
2014,07,14,00,03,25.00
2014,07,14,00,04,25.00
2014,07,14,00,05,25.00
2014,07,14,00,06,25.00
2014,07,14,00,07,25.00
2014,07,14,00,08,24.90
2014,07,14,00,09,24.90
2014,07,14,00,10,24.90
2014,07,14,00,11,24.90
2014,07,14,00,12,24.90
2014,07,14,00,13,24.80
2014,07,14,00,14,24.80
2014,07,14,00,15,24.80
2014,07,14,00,16,24.80
2014,07,14,00,17,24.70
2014,07,14,00,18,24.70
2014,07,14,00,19,24.70
2014,07,14,00,20,24.60
2014,07,14,00,21,24.60
2014,07,14,00,22,24.50
2014,07,14,00,23,24.50
2014,07,14,00,24,24.50
2014,07,14,00,25,24.40
2014,07,14,00,26,24.40
2014,07,14,00,27,24.40
2014,07,14,00,28,24.30
2014,07,14,00,29,24.30
2014,07,14,00,30,24.30
2014,07,14,00,31,24.20
2014,07,14,00,32,24.20
2014,07,14,00,33,24.20
2014,07,14,00,34,24.10
2014,07,14,00,35,24.10
2014,07,14,00,36,24.10
2014,07,14,00,37,24.10
2014,07,14,00,38,24.00
2014,07,14,00,39,24.00
2014,07,14,00,40,23.90
2014,07,14,00,41,23.90
2014,07,14,00,42,23.90
2014,07,14,00,43,23.80
2014,07,14,00,44,23.80
2014,07,14,00,45,23.80
2014,07,14,00,46,23.80
2014,07,14,00,47,23.70
2014,07,14,00,48,23.70
2014,07,14,00,49,23.70
2014,07,14,00,50,23.60
2014,07,14,00,51,23.60
2014,07,14,00,52,23.60
2014,07,14,00,53,23.60
2014,07,14,00,54,23.50
2014,07,14,00,55,23.50
2014,07,14,00,56,23.40
2014,07,14,00,57,23.40
2014,07,14,00,58,23.40
2014,07,14,00,59,23.40
2014,07,14,01,00,23.30
2014,07,14,01,01,23.30
2014,07,14,01,02,23.20
2014,07,14,01,03,23.20
2014,07,14,01,04,23.20
2014,07,14,01,05,23.10
2014,07,14,01,06,23.10
2014,07,14,01,07,23.00
2014,07,14,01,08,23.00
2014,07,14,01,09,22.90
2014,07,14,01,10,22.80
2014,07,14,01,11,22.80
2014,07,14,01,12,22.70
2014,07,14,01,13,22.70
2014,07,14,01,14,22.60
2014,07,14,01,15,22.50
2014,07,14,01,16,22.50
2014,07,14,01,17,22.50
2014,07,14,01,18,22.40
2014,07,14,01,19,22.40
2014,07,14,01,20,22.30
2014,07,14,01,21,22.30
2014,07,14,01,22,22.30
2014,07,14,01,23,22.30
2014,07,14,01,24,22.20
2014,07,14,01,25,22.20
2014,07,14,01,26,22.20
2014,07,14,01,27,22.20
2014,07,14,01,28,22.10
2014,07,14,01,29,22.10
2014,07,14,01,30,22.10
2014,07,14,01,31,22.10
2014,07,14,01,32,22.10
2014,07,14,01,33,22.10
2014,07,14,01,34,22.10
2014,07,14,01,35,22.10
2014,07,14,01,36,22.10
2014,07,14,01,37,22.10
2014,07,14,01,38,22.10
2014,07,14,01,39,22.10
2014,07,14,01,40,22.10
2014,07,14,01,41,22.10
2014,07,14,01,42,22.10
2014,07,14,01,43,22.10
2014,07,14,01,44,22.00
2014,07,14,01,45,22.00
2014,07,14,01,46,22.00
2014,07,14,01,47,22.00
2014,07,14,01,48,21.90
2014,07,14,01,49,21.90
2014,07,14,01,50,21.90
2014,07,14,01,51,21.90
2014,07,14,01,52,21.90
2014,07,14,01,53,21.90
2014,07,14,01,54,21.90
2014,07,14,01,55,21.90
2014,07,14,01,56,21.90
2014,07,14,01,57,21.90
2014,07,14,01,58,21.90
2014,07,14,01,59,21.90
2014,07,14,02,00,21.90
2014,07,14,02,01,21.90
2014,07,14,02,02,21.90
2014,07,14,02,03,21.90
2014,07,14,02,04,21.90
2014,07,14,02,05,21.90
2014,07,14,02,06,21.80
2014,07,14,02,07,21.80
2014,07,14,02,08,21.80
2014,07,14,02,09,21.80
2014,07,14,02,10,21.70
2014,07,14,02,11,21.70
2014,07,14,02,12,21.70
2014,07,14,02,13,21.60
2014,07,14,02,14,21.60
2014,07,14,02,15,21.60
2014,07,14,02,16,21.60
2014,07,14,02,17,21.60
2014,07,14,02,18,21.60
2014,07,14,02,19,21.50
2014,07,14,02,20,21.50
2014,07,14,02,21,21.40
2014,07,14,02,22,21.40
2014,07,14,02,23,21.40
2014,07,14,02,24,21.30
2014,07,14,02,25,21.20
2014,07,14,02,26,21.10
2014,07,14,02,27,21.10
2014,07,14,02,28,21.00
2014,07,14,02,29,21.00
2014,07,14,02,30,20.90
2014,07,14,02,31,20.90
2014,07,14,02,32,20.80
2014,07,14,02,33,20.80
2014,07,14,02,34,20.80
2014,07,14,02,35,20.70
2014,07,14,02,36,20.70
2014,07,14,02,37,20.60
2014,07,14,02,38,20.50
2014,07,14,02,39,20.50
2014,07,14,02,40,20.40
2014,07,14,02,41,20.40
2014,07,14,02,42,20.30
2014,07,14,02,43,20.30
2014,07,14,02,44,20.30
2014,07,14,02,45,20.20
2014,07,14,02,46,20.20
2014,07,14,02,47,20.20
2014,07,14,02,48,20.10
2014,07,14,02,49,20.10
2014,07,14,02,50,20.10
2014,07,14,02,51,20.00
2014,07,14,02,52,20.00
2014,07,14,02,53,19.90
2014,07,14,02,54,19.90
2014,07,14,02,55,19.90
2014,07,14,02,56,19.80
2014,07,14,02,57,19.80
2014,07,14,02,58,19.80
2014,07,14,02,59,19.80
2014,07,14,03,00,19.80
2014,07,14,03,01,19.70
2014,07,14,03,02,19.70
2014,07,14,03,03,19.70
2014,07,14,03,04,19.70
2014,07,14,03,05,19.70
2014,07,14,03,06,19.60
2014,07,14,03,07,19.60
2014,07,14,03,08,19.60
2014,07,14,03,09,19.60
2014,07,14,03,10,19.60
2014,07,14,03,11,19.60
2014,07,14,03,12,19.70
2014,07,14,03,13,19.80
2014,07,14,03,14,19.90
2014,07,14,03,15,19.90
2014,07,14,03,16,20.00
2014,07,14,03,17,20.10
2014,07,14,03,18,20.20
2014,07,14,03,19,20.30
2014,07,14,03,20,20.40
2014,07,14,03,21,20.50
2014,07,14,03,22,20.50
2014,07,14,03,23,20.60
2014,07,14,03,24,20.60
2014,07,14,03,25,20.70
2014,07,14,03,26,20.70
2014,07,14,03,27,20.70
2014,07,14,03,28,20.70
2014,07,14,03,29,20.70
2014,07,14,03,30,20.70
2014,07,14,03,31,20.60
2014,07,14,03,32,20.60
2014,07,14,03,33,20.50
2014,07,14,03,34,20.40
2014,07,14,03,35,20.30
2014,07,14,03,36,20.20
2014,07,14,03,37,20.10
2014,07,14,03,38,20.00
2014,07,14,03,39,20.00
2014,07,14,03,40,19.90
2014,07,14,03,41,19.90
2014,07,14,03,42,19.80
2014,07,14,03,43,19.80
2014,07,14,03,44,19.80
2014,07,14,03,45,19.80
2014,07,14,03,46,19.80
2014,07,14,03,47,19.80
2014,07,14,03,48,19.70
2014,07,14,03,49,19.70
2014,07,14,03,50,19.70
2014,07,14,03,51,19.60
2014,07,14,03,52,19.60
2014,07,14,03,53,19.60
2014,07,14,03,54,19.50
2014,07,14,03,55,19.50
2014,07,14,03,56,19.40
2014,07,14,03,57,19.40
2014,07,14,03,58,19.30
2014,07,14,03,59,19.30
2014,07,14,04,00,19.20
2014,07,14,04,01,19.20
2014,07,14,04,02,19.10
2014,07,14,04,03,19.10
2014,07,14,04,04,19.10
2014,07,14,04,05,19.00
2014,07,14,04,06,19.00
2014,07,14,04,07,18.90
2014,07,14,04,08,18.90
2014,07,14,04,09,18.90
2014,07,14,04,10,18.80
2014,07,14,04,11,18.80
2014,07,14,04,12,18.80
2014,07,14,04,13,18.70
2014,07,14,04,14,18.70
2014,07,14,04,15,18.60
2014,07,14,04,16,18.60
2014,07,14,04,17,18.50
2014,07,14,04,18,18.50
2014,07,14,04,19,18.40
2014,07,14,04,20,18.40
2014,07,14,04,21,18.40
2014,07,14,04,22,18.40
2014,07,14,04,23,18.40
2014,07,14,04,24,18.40
2014,07,14,04,25,18.40
2014,07,14,04,26,18.30
2014,07,14,04,27,18.30
2014,07,14,04,28,18.30
2014,07,14,04,29,18.30
2014,07,14,04,30,18.30
2014,07,14,04,31,18.30
2014,07,14,04,32,18.30
2014,07,14,04,33,18.30
2014,07,14,04,34,18.30
2014,07,14,04,35,18.30
2014,07,14,04,36,18.40
2014,07,14,04,37,18.40
2014,07,14,04,38,18.50
2014,07,14,04,39,18.50
2014,07,14,04,40,18.60
2014,07,14,04,41,18.60
2014,07,14,04,42,18.60
2014,07,14,04,43,18.60
2014,07,14,04,44,18.60
2014,07,14,04,45,18.60
2014,07,14,04,46,18.60
2014,07,14,04,47,18.60
2014,07,14,04,48,18.70
2014,07,14,04,49,18.70
2014,07,14,04,50,18.70
2014,07,14,04,51,18.70
2014,07,14,04,52,18.80
2014,07,14,04,53,18.80
2014,07,14,04,54,18.90
2014,07,14,04,55,19.00
2014,07,14,04,56,19.10
2014,07,14,04,57,19.10
2014,07,14,04,58,19.20
2014,07,14,04,59,19.30
2014,07,14,05,00,19.30
2014,07,14,05,01,19.30
2014,07,14,05,02,19.40
2014,07,14,05,03,19.40
2014,07,14,05,04,19.40
2014,07,14,05,05,19.40
2014,07,14,05,06,19.40
2014,07,14,05,07,19.50
2014,07,14,05,08,19.50
2014,07,14,05,09,19.50
2014,07,14,05,10,19.50
2014,07,14,05,11,19.50
2014,07,14,05,12,19.50
2014,07,14,05,13,19.40
2014,07,14,05,14,19.40
2014,07,14,05,15,19.30
2014,07,14,05,16,19.30
2014,07,14,05,17,19.30
2014,07,14,05,18,19.20
2014,07,14,05,19,19.20
2014,07,14,05,20,19.10
2014,07,14,05,21,19.10
2014,07,14,05,22,19.10
2014,07,14,05,23,19.00
2014,07,14,05,24,19.00
2014,07,14,05,25,18.90
2014,07,14,05,26,18.80
2014,07,14,05,27,18.70
2014,07,14,05,28,18.60
2014,07,14,05,29,18.50
2014,07,14,05,30,18.40
2014,07,14,05,31,18.30
2014,07,14,05,32,18.20
2014,07,14,05,33,18.20
2014,07,14,05,34,18.10
2014,07,14,05,35,18.10
2014,07,14,05,36,18.00
2014,07,14,05,37,18.00
2014,07,14,05,38,17.90
2014,07,14,05,39,17.90
2014,07,14,05,40,17.80
2014,07,14,05,41,17.80
2014,07,14,05,42,17.70
2014,07,14,05,43,17.70
2014,07,14,05,44,17.60
2014,07,14,05,45,17.60
2014,07,14,05,46,17.50
2014,07,14,05,47,17.50
2014,07,14,05,48,17.40
2014,07,14,05,49,17.40
2014,07,14,05,50,17.30
2014,07,14,05,51,17.30
2014,07,14,05,52,17.30
2014,07,14,05,53,17.30
2014,07,14,05,54,17.20
2014,07,14,05,55,17.20
2014,07,14,05,56,17.10
2014,07,14,05,57,17.10
2014,07,14,05,58,17.00
2014,07,14,05,59,17.00
2014,07,14,06,00,16.90
2014,07,14,06,01,16.90
2014,07,14,06,02,16.90
2014,07,14,06,03,16.90
2014,07,14,06,04,16.80
2014,07,14,06,05,16.80
2014,07,14,06,06,16.80
2014,07,14,06,07,16.80
2014,07,14,06,08,16.80
2014,07,14,06,09,16.80
2014,07,14,06,10,16.80
2014,07,14,06,11,16.80
2014,07,14,06,12,16.80
2014,07,14,06,13,16.80
2014,07,14,06,14,16.80
2014,07,14,06,15,16.80
2014,07,14,06,16,16.80
2014,07,14,06,17,16.80
2014,07,14,06,18,16.80
2014,07,14,06,19,16.80
2014,07,14,06,20,16.80
2014,07,14,06,21,16.80
2014,07,14,06,22,16.80
2014,07,14,06,23,16.80
2014,07,14,06,24,16.80
2014,07,14,06,25,16.80
2014,07,14,06,26,16.80
2014,07,14,06,27,16.80
2014,07,14,06,28,16.80
2014,07,14,06,29,16.70
2014,07,14,06,30,16.70
2014,07,14,06,31,16.70
2014,07,14,06,32,16.70
2014,07,14,06,33,16.70
2014,07,14,06,34,16.70
2014,07,14,06,35,16.70
2014,07,14,06,36,16.70
2014,07,14,06,37,16.70
2014,07,14,06,38,16.70
2014,07,14,06,39,16.70
2014,07,14,06,40,16.70
2014,07,14,06,41,16.70
2014,07,14,06,42,16.70
2014,07,14,06,43,16.70
2014,07,14,06,44,16.70
2014,07,14,06,45,16.70
2014,07,14,06,46,16.70
2014,07,14,06,47,16.70
2014,07,14,06,48,16.70
2014,07,14,06,49,16.80
2014,07,14,06,50,16.80
2014,07,14,06,51,16.90
2014,07,14,06,52,17.00
2014,07,14,06,53,17.10
2014,07,14,06,54,17.10
2014,07,14,06,55,17.20
2014,07,14,06,56,17.20
2014,07,14,06,57,17.30
2014,07,14,06,58,17.30
2014,07,14,06,59,17.40
2014,07,14,07,00,17.50
2014,07,14,07,01,17.50
2014,07,14,07,02,17.70
2014,07,14,07,03,17.70
2014,07,14,07,04,17.90
2014,07,14,07,05,18.00
2014,07,14,07,06,18.20
2014,07,14,07,07,18.40
2014,07,14,07,08,18.70
2014,07,14,07,09,18.90
2014,07,14,07,10,19.20
2014,07,14,07,11,19.40
2014,07,14,07,12,19.50
2014,07,14,07,13,19.70
2014,07,14,07,14,19.80
2014,07,14,07,15,20.00
2014,07,14,07,16,20.10
2014,07,14,07,17,20.20
2014,07,14,07,18,20.30
2014,07,14,07,19,20.40
2014,07,14,07,20,20.50
2014,07,14,07,21,20.60
2014,07,14,07,22,20.70
2014,07,14,07,23,20.70
2014,07,14,07,24,20.80
2014,07,14,07,25,20.80
2014,07,14,07,26,20.90
2014,07,14,07,27,21.00
2014,07,14,07,28,21.00
2014,07,14,07,29,21.10
2014,07,14,07,30,21.20
2014,07,14,07,31,21.20
2014,07,14,07,32,21.30
2014,07,14,07,33,21.30
2014,07,14,07,34,21.30
2014,07,14,07,35,21.30
2014,07,14,07,36,21.30
2014,07,14,07,37,21.30
2014,07,14,07,38,21.30
2014,07,14,07,39,21.30
2014,07,14,07,40,21.30
2014,07,14,07,41,21.30
2014,07,14,07,42,21.30
2014,07,14,07,43,21.30
2014,07,14,07,44,21.30
2014,07,14,07,45,21.30
2014,07,14,07,46,21.40
2014,07,14,07,47,21.40
2014,07,14,07,48,21.40
2014,07,14,07,49,21.40
2014,07,14,07,50,21.40
2014,07,14,07,51,21.40
2014,07,14,07,52,21.40
2014,07,14,07,53,21.40
2014,07,14,07,54,21.40
2014,07,14,07,55,21.50
2014,07,14,07,56,21.50
2014,07,14,07,57,21.60
2014,07,14,07,58,21.70
2014,07,14,07,59,21.80
2014,07,14,08,00,21.80
2014,07,14,08,01,21.90
2014,07,14,08,02,22.00
2014,07,14,08,03,22.10
2014,07,14,08,04,22.20
2014,07,14,08,05,22.20
2014,07,14,08,06,22.20
2014,07,14,08,07,22.20
2014,07,14,08,08,22.30
2014,07,14,08,09,22.30
2014,07,14,08,10,22.30
2014,07,14,08,11,22.40
2014,07,14,08,12,22.40
2014,07,14,08,13,22.50
2014,07,14,08,14,22.50
2014,07,14,08,15,22.50
2014,07,14,08,16,22.50
2014,07,14,08,17,22.50
2014,07,14,08,18,22.60
2014,07,14,08,19,22.50
2014,07,14,08,20,22.50
2014,07,14,08,21,22.50
2014,07,14,08,22,22.50
2014,07,14,08,23,22.50
2014,07,14,08,24,22.50
2014,07,14,08,25,22.60
2014,07,14,08,26,22.60
2014,07,14,08,27,22.70
2014,07,14,08,28,22.70
2014,07,14,08,29,22.70
2014,07,14,08,30,22.80
2014,07,14,08,31,22.80
2014,07,14,08,32,22.90
2014,07,14,08,33,23.00
2014,07,14,08,34,23.00
2014,07,14,08,35,23.10
2014,07,14,08,36,23.10
2014,07,14,08,37,23.20
2014,07,14,08,38,23.30
2014,07,14,08,39,23.30
2014,07,14,08,40,23.20
2014,07,14,08,41,23.20
2014,07,14,08,42,23.20
2014,07,14,08,43,23.20
2014,07,14,08,44,23.20
2014,07,14,08,45,23.20
2014,07,14,08,46,23.10
2014,07,14,08,47,23.10
2014,07,14,08,48,23.10
2014,07,14,08,49,23.00
2014,07,14,08,50,23.00
2014,07,14,08,51,22.90
2014,07,14,08,52,22.90
2014,07,14,08,53,22.80
2014,07,14,08,54,22.80
2014,07,14,08,55,22.80
2014,07,14,08,56,22.80
2014,07,14,08,57,22.80
2014,07,14,08,58,22.80
2014,07,14,08,59,22.70
2014,07,14,09,00,22.70
2014,07,14,09,01,22.70
2014,07,14,09,02,22.70
2014,07,14,09,03,22.60
2014,07,14,09,04,22.50
2014,07,14,09,05,22.40
2014,07,14,09,06,22.30
2014,07,14,09,07,22.30
2014,07,14,09,08,22.30
2014,07,14,09,09,22.30
2014,07,14,09,10,22.20
2014,07,14,09,11,22.20
2014,07,14,09,12,22.30
2014,07,14,09,13,22.20
2014,07,14,09,14,22.20
2014,07,14,09,15,22.20
2014,07,14,09,16,22.20
2014,07,14,09,17,22.20
2014,07,14,09,18,22.20
2014,07,14,09,19,22.20
2014,07,14,09,20,22.30
2014,07,14,09,21,22.30
2014,07,14,09,22,22.30
2014,07,14,09,23,22.30
2014,07,14,09,24,22.40
2014,07,14,09,25,22.50
2014,07,14,09,26,22.50
2014,07,14,09,27,22.60
2014,07,14,09,28,22.70
2014,07,14,09,29,22.70
2014,07,14,09,30,22.70
2014,07,14,09,31,22.80
2014,07,14,09,32,22.80
2014,07,14,09,33,22.80
2014,07,14,09,34,22.80
2014,07,14,09,35,22.80
2014,07,14,09,36,22.80
2014,07,14,09,37,22.80
2014,07,14,09,38,22.80
2014,07,14,09,39,22.90
2014,07,14,09,40,22.90
2014,07,14,09,41,22.90
2014,07,14,09,42,23.00
2014,07,14,09,43,23.10
2014,07,14,09,44,23.10
2014,07,14,09,45,23.20
2014,07,14,09,46,23.30
2014,07,14,09,47,23.30
2014,07,14,09,48,23.50
2014,07,14,09,49,23.60
2014,07,14,09,50,23.70
2014,07,14,09,51,23.80
2014,07,14,09,52,23.80
2014,07,14,09,53,23.90
2014,07,14,09,54,23.90
2014,07,14,09,55,24.00
2014,07,14,09,56,24.10
2014,07,14,09,57,24.30
2014,07,14,09,58,24.40
2014,07,14,09,59,24.50
2014,07,14,10,00,24.60
2014,07,14,10,01,24.70
2014,07,14,10,02,24.80
2014,07,14,10,03,24.90
2014,07,14,10,04,25.00
2014,07,14,10,05,25.00
2014,07,14,10,06,25.10
2014,07,14,10,07,25.30
2014,07,14,10,08,25.40
2014,07,14,10,09,25.40
2014,07,14,10,10,25.50
2014,07,14,10,11,25.60
2014,07,14,10,12,25.60
2014,07,14,10,13,25.70
2014,07,14,10,14,25.90
2014,07,14,10,15,26.00
2014,07,14,10,16,26.00
2014,07,14,10,17,26.10
2014,07,14,10,18,26.10
2014,07,14,10,19,26.20
2014,07,14,10,20,26.30
2014,07,14,10,21,26.40
2014,07,14,10,22,26.50
2014,07,14,10,23,26.60
2014,07,14,10,24,26.60
2014,07,14,10,25,26.70
2014,07,14,10,26,26.80
2014,07,14,10,27,26.90
2014,07,14,10,28,26.90
2014,07,14,10,29,26.90
2014,07,14,10,30,26.90
2014,07,14,10,31,26.90
2014,07,14,10,32,26.90
2014,07,14,10,33,26.90
2014,07,14,10,34,26.90
2014,07,14,10,35,26.90
2014,07,14,10,36,26.90
2014,07,14,10,37,26.80
2014,07,14,10,38,26.80
2014,07,14,10,39,26.70
2014,07,14,10,40,26.70
2014,07,14,10,41,26.70
2014,07,14,10,42,26.70
2014,07,14,10,43,26.60
2014,07,14,10,44,26.60
2014,07,14,10,45,26.70
2014,07,14,10,46,26.70
2014,07,14,10,47,26.70
2014,07,14,10,48,26.80
2014,07,14,10,49,26.80
2014,07,14,10,50,26.80
2014,07,14,10,51,26.90
2014,07,14,10,52,27.00
2014,07,14,10,53,27.10
2014,07,14,10,54,27.20
2014,07,14,10,55,27.20
2014,07,14,10,56,27.20
2014,07,14,10,57,27.30
2014,07,14,10,58,27.30
2014,07,14,10,59,27.40
2014,07,14,11,00,27.50
2014,07,14,11,01,27.50
2014,07,14,11,02,27.60
2014,07,14,11,03,27.70
2014,07,14,11,04,27.80
2014,07,14,11,05,27.90
2014,07,14,11,06,28.00
2014,07,14,11,07,28.10
2014,07,14,11,08,28.20
2014,07,14,11,09,28.30
2014,07,14,11,10,28.40
2014,07,14,11,11,28.40
2014,07,14,11,12,28.50
2014,07,14,11,13,28.50
2014,07,14,11,14,28.60
2014,07,14,11,15,28.60
2014,07,14,11,16,28.60
2014,07,14,11,17,28.70
2014,07,14,11,18,28.80
2014,07,14,11,19,28.90
2014,07,14,11,20,29.00
2014,07,14,11,21,29.10
2014,07,14,11,22,29.30
2014,07,14,11,23,29.40
2014,07,14,11,24,29.40
2014,07,14,11,25,29.40
2014,07,14,11,26,29.40
2014,07,14,11,27,29.40
2014,07,14,11,28,29.40
2014,07,14,11,29,29.40
2014,07,14,11,30,29.30
2014,07,14,11,31,29.30
2014,07,14,11,32,29.30
2014,07,14,11,33,29.20
2014,07,14,11,34,29.20
2014,07,14,11,35,29.10
2014,07,14,11,36,29.00
2014,07,14,11,37,28.90
2014,07,14,11,38,28.90
2014,07,14,11,39,28.90
2014,07,14,11,40,28.90
2014,07,14,11,41,29.00
2014,07,14,11,42,29.00
2014,07,14,11,43,29.00
2014,07,14,11,44,29.00
2014,07,14,11,45,29.00
2014,07,14,11,46,29.00
2014,07,14,11,47,29.10
2014,07,14,11,48,29.10
2014,07,14,11,49,29.20
2014,07,14,11,50,29.30
2014,07,14,11,51,29.40
2014,07,14,11,52,29.40
2014,07,14,11,53,29.50
2014,07,14,11,54,29.50
2014,07,14,11,55,29.60
2014,07,14,11,56,29.70
2014,07,14,11,57,29.80
2014,07,14,11,58,29.90
2014,07,14,11,59,30.00
2014,07,14,12,00,30.10
2014,07,14,12,01,30.20
2014,07,14,12,02,30.30
2014,07,14,12,03,30.30
2014,07,14,12,04,30.10
2014,07,14,12,05,29.80
2014,07,14,12,06,29.60
2014,07,14,12,07,29.20
2014,07,14,12,08,28.80
2014,07,14,12,09,28.50
2014,07,14,12,10,28.20
2014,07,14,12,11,28.00
2014,07,14,12,12,27.90
2014,07,14,12,13,27.80
2014,07,14,12,14,27.70
2014,07,14,12,15,27.70
2014,07,14,12,16,27.70
2014,07,14,12,17,27.70
2014,07,14,12,18,27.80
2014,07,14,12,19,27.80
2014,07,14,12,20,27.80
2014,07,14,12,21,27.90
2014,07,14,12,22,27.90
2014,07,14,12,23,28.00
2014,07,14,12,24,28.10
2014,07,14,12,25,28.20
2014,07,14,12,26,28.20
2014,07,14,12,27,28.20
2014,07,14,12,28,28.20
2014,07,14,12,29,28.10
2014,07,14,12,30,28.10
2014,07,14,12,31,28.10
2014,07,14,12,32,28.10
2014,07,14,12,33,28.10
2014,07,14,12,34,28.10
2014,07,14,12,35,28.20
2014,07,14,12,36,28.20
2014,07,14,12,37,28.20
2014,07,14,12,38,28.20
2014,07,14,12,39,28.30
2014,07,14,12,40,28.30
2014,07,14,12,41,28.30
2014,07,14,12,42,28.30
2014,07,14,12,43,28.30
2014,07,14,12,44,28.30
2014,07,14,12,45,28.30
2014,07,14,12,46,28.30
2014,07,14,12,47,28.30
2014,07,14,12,48,28.30
2014,07,14,12,49,28.20
2014,07,14,12,50,28.20
2014,07,14,12,51,28.20
2014,07,14,12,52,28.20
2014,07,14,12,53,28.10
2014,07,14,12,54,28.10
2014,07,14,12,55,28.00
2014,07,14,12,56,27.90
2014,07,14,12,57,27.80
2014,07,14,12,58,27.80
2014,07,14,12,59,27.80
2014,07,14,13,00,27.80
2014,07,14,13,01,27.70
2014,07,14,13,02,27.70
2014,07,14,13,03,27.70
2014,07,14,13,04,27.70
2014,07,14,13,05,27.70
2014,07,14,13,06,27.80
2014,07,14,13,07,27.90
2014,07,14,13,08,27.90
2014,07,14,13,09,28.10
2014,07,14,13,10,28.10
2014,07,14,13,11,28.20
2014,07,14,13,12,28.20
2014,07,14,13,13,28.30
2014,07,14,13,14,28.40
2014,07,14,13,15,28.50
2014,07,14,13,16,28.50
2014,07,14,13,17,28.60
2014,07,14,13,18,28.60
2014,07,14,13,19,28.60
2014,07,14,13,20,28.60
2014,07,14,13,21,28.60
2014,07,14,13,22,28.60
2014,07,14,13,23,28.70
2014,07,14,13,24,28.80
2014,07,14,13,25,28.80
2014,07,14,13,26,28.90
2014,07,14,13,27,28.90
2014,07,14,13,28,28.90
2014,07,14,13,29,28.90
2014,07,14,13,30,28.90
2014,07,14,13,31,28.90
2014,07,14,13,32,29.00
2014,07,14,13,33,29.00
2014,07,14,13,34,29.00
2014,07,14,13,35,29.00
2014,07,14,13,36,29.00
2014,07,14,13,37,28.90
2014,07,14,13,38,28.90
2014,07,14,13,39,28.90
2014,07,14,13,40,28.80
2014,07,14,13,41,28.90
2014,07,14,13,42,28.90
2014,07,14,13,43,28.90
2014,07,14,13,44,29.00
2014,07,14,13,45,29.10
2014,07,14,13,46,29.20
2014,07,14,13,47,29.20
2014,07,14,13,48,29.20
2014,07,14,13,49,29.20
2014,07,14,13,50,29.20
2014,07,14,13,51,29.20
2014,07,14,13,52,29.20
2014,07,14,13,53,29.20
2014,07,14,13,54,29.30
2014,07,14,13,55,29.40
2014,07,14,13,56,29.50
2014,07,14,13,57,29.70
2014,07,14,13,58,29.90
2014,07,14,13,59,30.10
2014,07,14,14,00,30.30
2014,07,14,14,01,30.20
2014,07,14,14,02,30.10
2014,07,14,14,03,29.90
2014,07,14,14,04,29.80
2014,07,14,14,05,29.60
2014,07,14,14,06,29.60
2014,07,14,14,07,29.50
2014,07,14,14,08,29.40
2014,07,14,14,09,29.30
2014,07,14,14,10,29.30
2014,07,14,14,11,29.20
2014,07,14,14,12,29.20
2014,07,14,14,13,29.20
2014,07,14,14,14,29.20
2014,07,14,14,15,29.10
2014,07,14,14,16,29.10
2014,07,14,14,17,29.00
2014,07,14,14,18,29.00
2014,07,14,14,19,29.00
2014,07,14,14,20,29.00
2014,07,14,14,21,29.10
2014,07,14,14,22,29.10
2014,07,14,14,23,29.10
2014,07,14,14,24,29.10
2014,07,14,14,25,29.10
2014,07,14,14,26,29.10
2014,07,14,14,27,29.10
2014,07,14,14,28,29.10
2014,07,14,14,29,29.10
2014,07,14,14,30,29.20
2014,07,14,14,31,29.20
2014,07,14,14,32,29.20
2014,07,14,14,33,29.20
2014,07,14,14,34,29.20
2014,07,14,14,35,29.30
2014,07,14,14,36,29.30
2014,07,14,14,37,29.30
2014,07,14,14,38,29.40
2014,07,14,14,39,29.40
2014,07,14,14,40,29.40
2014,07,14,14,41,29.40
2014,07,14,14,42,29.50
2014,07,14,14,43,29.50
2014,07,14,14,44,29.60
2014,07,14,14,45,29.60
2014,07,14,14,46,29.60
2014,07,14,14,47,29.60
2014,07,14,14,48,29.70
2014,07,14,14,49,29.70
2014,07,14,14,50,29.80
2014,07,14,14,51,29.80
2014,07,14,14,52,29.90
2014,07,14,14,53,29.90
2014,07,14,14,54,29.80
2014,07,14,14,55,29.80
2014,07,14,14,56,29.80
2014,07,14,14,57,29.90
2014,07,14,14,58,29.90
2014,07,14,14,59,29.90
2014,07,14,15,00,30.00
2014,07,14,15,01,30.00
2014,07,14,15,02,30.00
2014,07,14,15,03,29.90
2014,07,14,15,04,30.00
2014,07,14,15,05,30.00
2014,07,14,15,06,30.00
2014,07,14,15,07,30.00
2014,07,14,15,08,29.90
2014,07,14,15,09,29.90
2014,07,14,15,10,30.00
2014,07,14,15,11,30.00
2014,07,14,15,12,30.10
2014,07,14,15,13,30.10
2014,07,14,15,14,30.20
2014,07,14,15,15,30.20
2014,07,14,15,16,30.20
2014,07,14,15,17,30.30
2014,07,14,15,18,30.30
2014,07,14,15,19,30.30
2014,07,14,15,20,30.30
2014,07,14,15,21,30.30
2014,07,14,15,22,30.30
2014,07,14,15,23,30.30
2014,07,14,15,24,30.30
2014,07,14,15,25,30.30
2014,07,14,15,26,30.30
2014,07,14,15,27,30.30
2014,07,14,15,28,30.40
2014,07,14,15,29,30.40
2014,07,14,15,30,30.40
2014,07,14,15,31,30.40
2014,07,14,15,32,30.30
2014,07,14,15,33,30.30
2014,07,14,15,34,30.30
2014,07,14,15,35,30.30
2014,07,14,15,36,30.30
2014,07,14,15,37,30.30
2014,07,14,15,38,30.30
2014,07,14,15,39,30.30
2014,07,14,15,40,30.30
2014,07,14,15,41,30.30
2014,07,14,15,42,30.30
2014,07,14,15,43,30.20
2014,07,14,15,44,30.20
2014,07,14,15,45,30.20
2014,07,14,15,46,30.30
2014,07,14,15,47,30.30
2014,07,14,15,48,30.30
2014,07,14,15,49,30.20
2014,07,14,15,50,30.20
2014,07,14,15,51,30.10
2014,07,14,15,52,30.10
2014,07,14,15,53,30.10
2014,07,14,15,54,30.10
2014,07,14,15,55,30.10
2014,07,14,15,56,30.10
2014,07,14,15,57,30.10
2014,07,14,15,58,30.20
2014,07,14,15,59,30.30
2014,07,14,16,00,30.30
2014,07,14,16,01,30.40
2014,07,14,16,02,30.40
2014,07,14,16,03,30.50
2014,07,14,16,04,30.50
2014,07,14,16,05,30.50
2014,07,14,16,06,30.60
2014,07,14,16,07,30.60
2014,07,14,16,08,30.60
2014,07,14,16,09,30.60
2014,07,14,16,10,30.70
2014,07,14,16,11,30.70
2014,07,14,16,12,30.70
2014,07,14,16,13,30.70
2014,07,14,16,14,30.80
2014,07,14,16,15,30.80
2014,07,14,16,16,30.80
2014,07,14,16,17,30.80
2014,07,14,16,18,30.80
2014,07,14,16,19,30.90
2014,07,14,16,20,30.90
2014,07,14,16,21,30.90
2014,07,14,16,22,30.90
2014,07,14,16,23,30.90
2014,07,14,16,24,30.90
2014,07,14,16,25,30.90
2014,07,14,16,26,30.90
2014,07,14,16,27,30.80
2014,07,14,16,28,30.80
2014,07,14,16,29,30.80
2014,07,14,16,30,30.80
2014,07,14,16,31,30.80
2014,07,14,16,32,30.80
2014,07,14,16,33,30.80
2014,07,14,16,34,30.80
2014,07,14,16,35,30.80
2014,07,14,16,36,30.80
2014,07,14,16,37,30.80
2014,07,14,16,38,30.80
2014,07,14,16,39,30.90
2014,07,14,16,40,30.90
2014,07,14,16,41,30.90
2014,07,14,16,42,30.90
2014,07,14,16,43,30.90
2014,07,14,16,44,30.80
2014,07,14,16,45,30.80
2014,07,14,16,46,30.80
2014,07,14,16,47,30.80
2014,07,14,16,48,30.80
2014,07,14,16,49,30.80
2014,07,14,16,50,30.80
2014,07,14,16,51,30.80
2014,07,14,16,52,30.80
2014,07,14,16,53,30.90
2014,07,14,16,54,30.90
2014,07,14,16,55,30.90
2014,07,14,16,56,31.00
2014,07,14,16,57,31.10
2014,07,14,16,58,31.10
2014,07,14,16,59,31.20
2014,07,14,17,00,31.20
2014,07,14,17,01,31.20
2014,07,14,17,02,31.20
2014,07,14,17,03,31.10
2014,07,14,17,04,31.10
2014,07,14,17,05,31.00
2014,07,14,17,06,31.00
2014,07,14,17,07,31.00
2014,07,14,17,08,31.10
2014,07,14,17,09,31.20
2014,07,14,17,10,31.20
2014,07,14,17,11,31.10
2014,07,14,17,12,31.10
2014,07,14,17,13,31.10
2014,07,14,17,14,31.10
2014,07,14,17,15,31.10
2014,07,14,17,16,31.10
2014,07,14,17,17,31.10
2014,07,14,17,18,31.10
2014,07,14,17,19,31.10